Content
SEND FEEDBACK

Daily
Averages
Monthly
Summary
United States of America

CRESTED BUTTE, COLORADO


Home > North America > United States > Colorado
Elevation: 9277 feet     Latitude: 38 52N     Longitude: 106 58W

WEATHER
 
SELECT A DAY
Number of Records: 458,830;   Date Range: 1/1/95 - 12/20/14
 
SHARE

PRINT THIS DATA

[ ← Previous Day ]
WEATHER ALMANAC - DECEMBER 31, 2013
[ Next Day → ]
[ °C ]   °F
Weather ElementAverageHighLow
Temperature9.5 °F24.8 °F (2:55 pm)-4 °F (2:35 am)
Dewpoint-0.3 °F12.2 °F (2:35 pm)-22 °F (7:55 am)
Humidity65.7 %100 % (12:35 am)33 % (7:55 am)
Barometer30.29 in30.39 in (8:55 am)30.18 in (11:15 pm)
Wind Speed0.3 mph4.6 mph (9:55 am)
Weather ElementAverage
Visibility9.9 mi
Wind DirectionN (4.8 °)

Weather ElementTotal
Precipitation---
Heating Degree Days54.6 (Base 65)
Averaged from 65 records on December 31, 2013
WEATHER CONDITIONS BREAKOUT
WIND DIRECTION BREAKOUT
WEATHER BY HOUR - DECEMBER 31, 2013
[ °C ]   °F
Local TimeTemperatureDewpointHumidityBarometerVisibilityWind DirectionWind SpeedGust SpeedPrecipitationEventsConditions
12:35 AM-0.4 °F-0.4 °F100 %30.36 in9.0 miCalmClear
12:55 AM-0.4 °F-16.6 °F46 %30.35 in10.0 miCalmClear
1:15 AM-0.4 °F-7.6 °F72 %30.35 in10.0 miCalmClear
1:35 AM-0.4 °F-13.0 °F55 %30.36 in10.0 miCalmClear
1:55 AM-0.4 °F-7.6 °F72 %30.36 in10.0 miCalmClear
2:15 AM-2.2 °F-18.4 °F46 %30.36 in7.0 miCalmClear
2:35 AM-4.0 °F-11.2 °F71 %30.36 in10.0 miCalmClear
2:55 AM-0.4 °F-7.6 °F72 %30.35 in10.0 miCalmClear
3:15 AM-2.2 °F-11.2 °F66 %30.36 in10.0 miNorthClear
3:35 AM-0.4 °F-7.6 °F72 %30.36 in10.0 miCalmClear
3:55 AM-0.4 °F-14.8 °F51 %30.36 in10.0 miCalmClear
4:15 AM-0.4 °F-13.0 °F55 %30.36 in10.0 miCalmClear
4:35 AM-2.2 °F-16.6 °F50 %30.35 in10.0 miCalmClear
4:55 AM-2.2 °F-16.6 °F50 %30.35 in10.0 miCalmClear
5:15 AM-2.2 °F-11.2 °F66 %30.35 in10.0 miCalmClear
5:35 AM-0.4 °F-0.4 °F100 %30.35 in10.0 miCalmClear
5:55 AM-0.4 °F-14.8 °F51 %30.36 in10.0 miCalmClear
6:15 AM-0.4 °F-7.6 °F72 %30.35 in10.0 miCalmClear
6:35 AM1.4 °F-18.4 °F39 %30.35 in10.0 miCalmClear
6:55 AM-0.4 °F-18.4 °F43 %30.34 in10.0 miCalmClear
7:15 AM1.4 °F-14.8 °F47 %30.34 in10.0 miCalmClear
7:55 AM1.4 °F-22.0 °F33 %30.36 in10.0 miCalmClear
8:35 AM5.0 °F-2.2 °F72 %30.38 in10.0 miCalmPartly Cloudy
8:55 AM5.0 °F-11.2 °F47 %30.39 in10.0 miCalmMostly Cloudy
9:15 AM6.8 °F-7.6 °F52 %30.39 in9.0 miCalmPartly Cloudy
9:35 AM6.8 °F-4.0 °F61 %30.39 in10.0 miCalmClear
9:55 AM8.6 °F0.0 °F30.39 in10.0 miEast (80°)4.6 mphPartly Cloudy
10:15 AM8.6 °F-0.4 °F67 %30.39 in10.0 miEast (80°)3.5 mphMostly Cloudy
10:35 AM10.4 °F1.4 °F67 %30.38 in10.0 miCalmOvercast
10:55 AM10.4 °F1.4 °F67 %30.38 in10.0 miEast (100°)4.6 mphOvercast
11:15 AM12.2 °F5.0 °F73 %30.37 in10.0 miCalmOvercast
11:35 AM14.0 °F6.8 °F73 %30.35 in10.0 miCalmOvercast
11:55 AM15.8 °F6.8 °F68 %30.33 in10.0 miCalmOvercast
12:15 PM17.6 °F8.6 °F68 %30.31 in10.0 miCalmOvercast
12:35 PM19.4 °F8.6 °F63 %30.29 in10.0 miCalmOvercast
12:55 PM19.4 °F8.6 °F63 %30.29 in10.0 miCalmScattered Clouds
1:15 PM21.2 °F10.4 °F63 %30.27 in10.0 miCalmPartly Cloudy
1:55 PM21.2 °F10.4 °F63 %30.25 in10.0 miCalmPartly Cloudy
2:15 PM21.2 °F10.4 °F63 %30.24 in10.0 miCalmMostly Cloudy
2:35 PM23.0 °F12.2 °F63 %30.24 in10.0 miCalmMostly Cloudy
2:55 PM24.8 °F12.2 °F59 %30.23 in10.0 miCalmMostly Cloudy
3:15 PM24.8 °F12.2 °F59 %30.23 in10.0 miCalmMostly Cloudy
3:35 PM24.8 °F10.4 °F54 %30.23 in10.0 miCalmPartly Cloudy
3:55 PM23.0 °F10.4 °F59 %30.22 in10.0 miCalmClear
4:15 PM21.2 °F10.4 °F63 %30.22 in10.0 miCalmClear
4:35 PM21.2 °F10.4 °F63 %30.22 in10.0 miCalmClear
4:55 PM19.4 °F8.6 °F63 %30.22 in10.0 miCalmClear
5:35 PM17.6 °F10.4 °F73 %30.21 in10.0 miCalmClear
5:55 PM15.8 °F1.4 °F53 %30.21 in10.0 miCalmPartly Cloudy
6:15 PM15.8 °F12.2 °F86 %30.22 in9.0 miCalmPartly Cloudy
6:35 PM15.8 °F8.6 °F73 %30.21 in9.0 miCalmClear
6:55 PM12.2 °F1.4 °F62 %30.22 in10.0 miCalmClear
7:15 PM12.2 °F3.2 °F67 %30.21 in10.0 miCalmClear
7:35 PM14.0 °F10.4 °F86 %30.21 in10.0 miCalmClear
7:55 PM12.2 °F5.0 °F73 %30.21 in10.0 miCalmClear
8:15 PM12.2 °F10.4 °F92 %30.21 in10.0 miCalmClear
8:35 PM8.6 °F-2.2 °F62 %30.21 in10.0 miCalmClear
8:55 PM12.2 °F10.4 °F92 %30.20 in10.0 miNE (50°)4.6 mphClear
9:15 PM10.4 °F6.8 °F85 %30.20 in10.0 miCalmPartly Cloudy
9:35 PM10.4 °F3.2 °F73 %30.19 in10.0 miCalmPartly Cloudy
10:15 PM12.2 °F5.0 °F73 %30.19 in10.0 miCalmPartly Cloudy
10:35 PM8.6 °F-0.4 °F67 %30.19 in10.0 miCalmPartly Cloudy
11:15 PM10.4 °F5.0 °F79 %30.18 in10.0 miCalmMostly Cloudy
11:35 PM12.2 °F6.8 °F79 %30.18 in10.0 miCalmOvercast
11:55 PM14.0 °F10.4 °F86 %30.18 in10.0 miCalmOvercast
Hourly data recorded from KGUC, located miles away from Crested Butte, Colorado







STORIES FROM OUR PARTNERS